Fort Irwin/Barstow, Bicycle L, CA

4:46 AM PST on November 15, 2019 (GMT -0800)
Fort Irwin/Barstow, Bicycle L

Weather History for KBYS - July, 2019

Change the Weather History Date:

Tuesday, July 23, 2019

  Actual Average (KDAG) Record (KDAG)
Temperature  
Mean Temperature 94 °F -  
Max Temperature 104 °F 103 °F 112 °F (2006)
Min Temperature 86 °F 74 °F 61 °F (1987)
Cooling Degree Days 30    
Growing Degree Days 44 (Base 50)    
Moisture  
Dew Point 44 °F    
Average Humidity 19    
Maximum Humidity 29    
Minimum Humidity 13    
Precipitation  
Precipitation 0.00 in - - ()
Sea Level Pressure  
Sea Level Pressure 30.02 in    
Wind  
Wind Speed 8 mph (SSE)    
Max Wind Speed 20 mph    
Max Gust Speed 29 mph    
Visibility 10 miles    
Events      
Averages and records for this station are not official NWS values.
T = Trace of Precipitation, MM = Missing Value Source: NWS Daily Summary

Daily Weather History Graph

Daily Weather History Graph

Search for Another Location

Airport or City:

Astronomy

Jul. 23, 2019 Rise Set
Actual Time 5:48 AM PDT 7:57 PM PDT
Civil Twilight 5:20 AM PDT 8:25 PM PDT
Nautical Twilight 4:45 AM PDT 9:00 PM PDT
Astronomical Twilight 4:07 AM PDT 9:37 PM PDT
Moon 11:59 PM PDT (7/23) 11:53 AM PDT (7/23)
Length of Visible Light 15h 05m
Length of Day
14h 08m
Waning Gibbous, 62% of the Moon is Illuminated
Jul 23
Waning Gibbous
Jul 24
Last Quarter
Jul 31
New
Aug 7
First Quarter
Aug 15
Full

Hourly Weather History & Observations

Time (PDT) Temp. Heat Index Dew Point Humidity Pressure Visibility Wind Dir Wind Speed Gust Speed Precip Events Conditions
12:58 AM 91.0 °F - 44.4 °F 20% 29.99 in 10.0 mi West 13.8 mph - N/A   Partly Cloudy
1:58 AM 90.0 °F - 36.1 °F 15% 30.00 in 10.0 mi Calm Calm - N/A   Partly Cloudy
2:58 AM 90.3 °F - 38.1 °F 16% 30.01 in 10.0 mi Variable 3.5 mph - N/A   Partly Cloudy
3:58 AM 88.3 °F - 37.0 °F 16% 30.02 in 10.0 mi Variable 3.5 mph - N/A   Mostly Cloudy
4:58 AM 87.6 °F - 38.7 °F 18% 30.03 in 10.0 mi South 9.2 mph - N/A   Mostly Cloudy
5:58 AM 86.2 °F - 39.2 °F 19% 30.06 in 10.0 mi SSE 8.1 mph - N/A   Mostly Cloudy
6:58 AM 86.9 °F - 41.0 °F 20% 30.07 in 10.0 mi Variable 4.6 mph - N/A   Partly Cloudy
7:58 AM 88.2 °F - 41.4 °F 19% 30.08 in 10.0 mi Calm Calm - N/A   Partly Cloudy
8:58 AM 92.7 °F - 41.5 °F 17% 30.08 in 10.0 mi Calm Calm - N/A   Clear
9:58 AM 93.9 °F - 42.4 °F 17% 30.08 in 10.0 mi NW 3.5 mph - N/A   Clear
10:58 AM 96.3 °F - 42.4 °F 16% 30.07 in 10.0 mi Variable 3.5 mph - N/A   Clear
11:58 AM 97.9 °F - 42.3 °F 15% 30.07 in 10.0 mi Calm Calm - N/A   Clear
12:10 PM 96.8 °F - 41.0 °F 15% 30.06 in 10.0 mi SE 13.8 mph 26.5 mph N/A   Clear
12:58 PM 99.7 °F - 42.3 °F 14% 30.05 in 10.0 mi Variable 6.9 mph - N/A   Clear
1:58 PM 99.9 °F - 43.9 °F 15% 30.02 in 10.0 mi SE 9.2 mph - N/A   Clear
2:58 PM 103.5 °F - 44.2 °F 13% 29.99 in 10.0 mi NE 8.1 mph - N/A   Clear
3:50 PM 102.2 °F - 42.8 °F 13% 29.96 in 10.0 mi SSE 16.1 mph - N/A   Clear
3:58 PM 102.6 °F - 43.3 °F 13% 29.97 in 10.0 mi South 9.2 mph 18.4 mph N/A   Clear
4:35 PM 102.2 °F - 44.6 °F 14% 29.94 in 9.0 mi SSE 18.4 mph 28.8 mph N/A   Clear
4:58 PM 98.2 °F - 51.3 °F 20% 29.95 in 10.0 mi SE 19.6 mph - N/A   Partly Cloudy
5:51 PM 96.8 °F - 50.0 °F 20% 29.96 in 10.0 mi South 12.7 mph - N/A   Partly Cloudy
5:58 PM 96.8 °F - 49.8 °F 20% 29.97 in 10.0 mi South 12.7 mph - N/A   Scattered Clouds
6:51 PM 91.4 °F 89.1 °F 53.6 °F 28% 30.01 in 10.0 mi SSW 15.0 mph - N/A   Mostly Cloudy
6:58 PM 90.3 °F 88.1 °F 54.0 °F 29% 30.01 in 10.0 mi South 11.5 mph - N/A   Mostly Cloudy
7:58 PM 91.2 °F - 51.3 °F 25% 30.01 in 10.0 mi Variable 4.6 mph - N/A   Mostly Cloudy
9:58 PM 89.4 °F - 51.8 °F 28% 30.01 in 10.0 mi SSE 8.1 mph - N/A   Mostly Cloudy
11:58 PM 88.5 °F - 51.4 °F 28% 30.02 in 10.0 mi Variable 4.6 mph - N/A   Partly Cloudy